Temp
25 25 24 23 23 23 25 27 29 28 28 28 29 28 26 24 25 24 21 22 23 22 22 22 22 21 21 22 22 22 22 22 22 22 22 21 21 22 22 22 22 22 22 21 21 21 21 21 21
25 25 24 22 23 24 25 28 27 27 28 29 29 28 26 23 24 21 21 22 23 22 22 22 22 22 21 21 22 22 21 22 21 22 22 21 22 22 21 21 21 21 21 21 21 21 21 21 20
25 25 24 22 22 24 25 26 24 26 29 29 27 27 26 23 22 21 22 22 22 22 22 22 22 22 21 21 21 22 21 21 21 21 21 21 21 21 21 21 21 21 21 21 21 21 21 20 21
25 25 23 24 24 25 25 24 24 25 28 28 27 25 25 24 23 22 22 22 22 21 22 22 22 21 21 21 22 22 21 22 21 21 21 21 21 21 21 21 21 21 21 22 22 22 21 21 22
25 23 24 25 25 25 24 24 24 24 26 28 27 24 23 23 23 22 22 22 22 21 22 22 22 22 21 21 21 22 21 21 21 21 21 21 21 21 21 21 21 21 22 22 22 22 22 22 22
24 24 24 24 25 24 23 23 23 24 27 26 26 24 22 22 22 22 22 22 22 22 21 21 21 21 21 21 21 21 22 22 22 22 21 21 21 21 21 21 21 21 22 23 22 22 22 22 22
27 24 25 26 24 24 23 22 23 25 27 27 26 23 22 22 22 22 22 22 22 21 22 21 21 21 21 21 21 21 21 22 22 22 22 21 21 21 21 21 21 21 22 22 23 22 22 22 22
24 23 26 25 25 25 24 23 24 25 27 28 27 22 21 22 22 22 22 22 22 22 22 22 22 21 22 21 21 21 21 22 22 22 22 21 21 21 21 22 21 22 23 22 22 22 22 22 22
25 23 25 27 27 24 24 24 26 28 28 27 27 25 24 22 22 21 21 21 21 21 22 22 22 22 22 21 21 21 21 21 22 22 22 22 21 21 21 23 22 23 22 22 22 22 22 22 22
25 23 27 28 28 25 24 24 26 27 26 26 25 25 24 23 22 21 21 21 21 22 21 22 22 22 22 21 21 21 21 22 22 22 22 22 22 21 22 23 23 22 22 22 22 22 22 22 22
25 26 27 29 29 28 26 24 28 26 25 25 25 24 24 24 23 22 22 21 22 23 22 22 22 21 21 22 21 21 21 21 22 22 22 22 22 21 22 22 22 22 22 23 22 20 22 22 22
28 28 29 30 29 29 27 27 26 26 27 27 25 25 25 24 23 23 22 22 22 22 22 22 23 22 22 22 21 21 21 22 22 22 22 22 22 22 23 23 22 22 22 22 22 23 22 22 22
29 30 30 30 29 29 28 27 27 26 27 27 26 25 24 24 23 23 23 22 22 22 22 22 23 22 22 22 21 21 22 22 22 22 23 23 22 23 23 24 23 23 24 24 24 24 23 23 24
31 30 30 30 30 30 28 27 27 27 26 26 26 25 25 24 24 24 23 22 22 22 23 23 23 22 22 22 22 22 22 22 22 22 23 23 23 24 24 24 23 23 24 24 24 25 25 24 25
30 30 29 30 30 30 28 26 25 27 26 26 26 25 25 25 25 24 24 23 23 23 23 23 23 22 22 22 22 22 22 22 22 22 23 23 23 24 24 25 25 25 23 24 22 23 24 25 25
30 28 27 29 29 30 29 26 27 26 26 26 26 26 26 25 25 25 24 24 24 24 23 23 23 23 23 22 22 22 23 23 23 22 23 23 23 23 24 25 25 23 23 23 23 23 24 24 25
25 27 28 28 28 30 29 27 28 26 26 26 26 26 26 25 26 25 25 25 24 25 24 24 23 23 23 23 22 22 23 23 23 23 23 23 23 23 24 25 24 23 23 23 24 24 24 25 26
27 27 28 27 30 29 28 27 28 26 26 26 26 26 26 26 26 26 25 25 25 24 24 24 24 23 23 23 22 22 22 22 22 23 23 23 23 24 24 25 24 23 24 23 24 23 23 24 24
27 27 27 28 30 28 28 28 29 26 25 26 24 24 26 26 27 26 26 25 24 24 24 24 23 23 23 22 22 21 21 22 22 23 23 23 23 23 24 24 24 24 24 24 23 22 22 24 23
27 26 27 28 30 28 27 27 28 25 26 27 26 25 24 26 26 26 26 24 24 24 23 23 23 23 22 22 22 23 23 22 23 23 23 23 23 23 24 24 24 24 24 23 22 24 23 24 23
26 26 28 29 30 29 29 27 28 26 25 25 25 26 25 25 25 25 25 24 24 23 24 24 24 23 23 22 22 22 22 22 21 22 23 23 23 23 24 24 24 24 24 25 24 24 25 24 23
25 30 29 29 29 28 29 25 25 25 24 25 26 26 25 24 26 26 25 24 24 23 24 24 24 23 23 22 22 22 22 21 22 23 23 23 23 23 24 24 24 24 24 24 25 25 25 25 25
27 30 29 31 28 28 28 26 25 25 25 24 25 25 26 25 26 26 26 25 24 24 23 24 24 23 23 22 22 22 21 22 23 23 23 23 23 23 24 24 24 24 24 24 24 25 25 25 24
31 31 26 23 23 25 27 27 28 27 27 27 26 26 27 25 26 26 27 26 24 24 23 23 23 23 22 22 22 21 21 22 22 22 23 23 23 23 23 23 23 24 24 24 24 24 24 24 24
28 25 24 26 23 25 24 26 26 29 28 28 28 26 27 26 26 26 24 24 25 24 23 22 22 22 22 22 22 21 22 22 22 23 23 23 23 24 24 23 23 23 24 24 24 24 24 24 24
26 25 23 27 24 25 26 27 29 30 29 28 28 27 27 26 27 26 25 24 24 24 22 22 22 21 22 22 22 22 22 22 23 23 23 24 23 24 24 24 24 24 23 24 24 24 24 24 24
29 27 26 23 22 24 24 26 28 29 28 28 27 27 26 27 27 27 26 25 24 23 22 22 22 22 22 23 22 22 22 22 22 23 23 24 24 24 24 24 24 24 24 24 23 23 23 23 24
30 27 27 22 27 26 25 26 26 27 27 27 28 27 26 26 27 26 26 26 25 24 23 22 22 23 22 23 22 22 22 22 23 23 23 23 24 25 25 25 25 24 24 24 24 24 24 23 23
28 28 24 22 22 24 24 25 25 27 28 26 26 27 26 26 27 26 26 27 26 25 23 22 22 22 22 22 22 22 22 23 23 23 24 24 24 25 25 25 25 25 24 24 24 24 24 24 23
29 29 24 24 26 21 22 24 28 28 29 28 26 26 27 26 27 27 26 26 25 25 23 23 22 22 22 22 22 22 22 23 23 23 23 23 24 24 25 25 25 25 25 25 24 23 23 23 23
Height
767 766 767 768 796 797 807 798 779 786 780 770 768 774 784 789 793 811 789 794 798 802 805 809 812 814 815 816 817 818 821 823 825 826 828 830 831 831 832 833 833 834 835 837 838 839 840 840 840
767 766 766 773 806 821 814 791 795 788 778 767 767 774 782 795 787 790 793 795 798 802 806 809 811 814 817 819 821 822 823 825 827 829 830 831 831 832 834 835 835 836 836 838 839 840 841 842 843
769 768 773 791 812 821 817 799 798 787 774 774 777 773 780 791 789 790 790 795 800 804 807 810 814 815 819 821 823 825 826 828 830 831 831 832 832 833 835 836 837 837 837 839 840 840 843 843 843
771 771 777 799 811 803 803 799 798 794 777 773 775 788 782 784 787 789 791 798 801 805 809 811 814 817 819 822 825 826 828 830 832 832 833 834 834 835 836 838 838 838 837 838 840 842 842 842 843
772 778 800 807 808 801 797 797 797 797 788 779 777 792 793 789 789 791 794 799 802 806 809 812 815 818 820 823 826 826 830 831 832 834 835 836 835 836 837 839 838 839 840 840 843 843 842 842 843
781 784 809 818 809 805 799 793 792 793 784 784 785 789 795 791 791 794 796 800 804 807 810 814 816 819 820 824 825 828 829 831 832 833 835 837 836 836 838 839 838 839 840 841 841 842 842 843 844
782 795 807 805 813 810 800 793 794 792 787 785 779 797 796 792 794 795 798 801 805 809 812 815 817 821 823 826 827 829 829 831 831 834 834 837 837 837 839 839 840 840 842 842 843 844 844 843 844
782 793 803 801 809 807 793 796 788 792 786 774 777 797 800 791 794 797 799 803 806 810 812 815 818 820 822 826 828 829 830 831 834 833 835 838 838 839 840 840 841 840 846 847 847 845 845 844 844
778 806 812 799 796 801 792 797 784 777 780 778 777 778 778 788 794 799 802 805 807 810 814 816 818 820 823 825 827 829 830 831 835 837 838 838 839 841 841 840 841 842 849 849 847 846 846 845 844
786 809 796 780 778 790 792 795 783 782 785 785 781 777 781 789 795 798 802 804 807 808 812 815 817 820 822 825 827 829 830 832 835 836 837 838 839 841 841 842 843 849 849 847 845 847 845 844 844
783 796 780 774 772 773 785 791 777 782 790 782 783 783 785 791 795 797 800 801 803 807 810 813 816 820 822 824 825 827 829 832 834 835 837 838 839 841 841 842 847 849 849 844 846 847 844 842 842
787 774 772 768 767 772 779 775 781 778 775 770 774 778 783 788 792 795 798 800 802 805 808 811 814 817 821 822 825 827 830 832 835 835 836 838 841 841 842 845 847 848 849 846 847 845 843 840 841
778 771 766 764 766 767 769 776 779 780 772 772 777 780 783 785 788 791 794 798 799 802 806 809 813 816 819 822 825 827 829 833 835 837 837 839 841 841 841 844 845 847 847 845 843 843 841 839 842
765 767 766 761 764 764 773 779 776 771 769 773 775 778 781 782 784 789 792 794 796 799 802 806 810 815 818 820 824 826 829 832 835 837 838 840 842 840 840 842 844 845 845 843 843 842 840 840 840
764 774 770 766 765 768 768 786 781 765 766 773 775 778 780 781 784 784 787 790 792 795 800 803 807 813 816 819 823 825 828 831 834 838 839 840 842 841 840 841 842 843 844 842 843 842 841 841 843
777 783 799 772 768 764 768 796 767 764 766 773 774 776 778 779 778 781 785 789 791 794 797 801 805 808 813 817 821 824 826 829 832 836 838 840 841 841 841 842 843 845 844 844 843 841 842 842 843
798 809 799 787 766 767 773 783 761 759 766 771 770 770 772 775 778 779 781 784 787 790 795 798 802 806 810 815 819 823 825 828 831 834 837 839 841 842 842 842 843 846 845 844 843 840 842 843 843
810 807 797 798 772 772 776 775 761 762 764 766 767 764 765 767 768 772 776 779 783 787 791 796 800 804 808 814 817 822 824 826 829 832 835 839 841 842 842 842 843 845 844 845 844 844 843 845 845
795 800 804 779 761 773 771 767 756 760 763 764 764 762 759 761 761 765 772 777 781 785 788 792 797 801 806 811 815 819 822 823 826 829 833 836 840 841 842 842 843 844 844 845 847 846 846 845 845
796 803 794 777 758 768 770 772 759 759 754 753 756 757 758 758 762 765 767 772 776 781 785 789 794 797 802 807 811 815 818 820 822 826 830 834 838 840 841 842 843 843 844 845 847 847 848 846 846
793 800 788 785 766 760 766 782 765 752 749 751 751 750 752 755 757 761 764 767 773 778 781 785 789 794 799 804 809 812 816 820 822 825 828 831 835 838 839 841 842 843 844 844 846 847 846 846 846
808 761 770 774 780 799 768 815 779 760 757 752 748 747 748 749 751 754 759 764 769 772 779 783 787 792 797 801 806 809 812 816 819 822 825 829 832 835 838 840 841 842 843 843 844 845 845 844 844
786 761 768 763 780 784 785 804 778 760 759 752 743 742 741 743 744 747 751 755 763 770 774 779 784 789 793 798 803 807 811 814 818 820 824 827 830 833 836 838 840 841 841 842 843 844 843 844 846
753 762 778 790 798 816 788 796 777 765 747 736 731 732 731 737 739 741 747 755 760 767 773 776 781 786 790 795 799 803 807 812 815 818 821 824 826 830 833 836 838 840 841 842 843 843 842 843 844
765 789 824 820 829 823 796 797 778 739 727 725 720 723 721 727 732 737 743 749 755 761 767 772 778 782 786 791 795 799 803 807 810 814 817 821 824 826 828 831 834 836 838 839 840 841 841 841 841
774 784 820 826 836 815 787 793 766 722 715 711 707 712 716 722 725 730 734 741 747 753 761 767 773 778 782 786 790 795 799 803 807 810 813 817 821 823 825 828 831 833 835 837 838 838 837 838 839
765 783 771 807 815 819 802 775 742 723 719 712 710 713 715 717 718 721 727 734 741 747 752 759 766 773 777 781 787 790 795 799 803 807 811 814 818 821 823 826 828 830 832 833 835 835 835 835 836
749 754 788 807 813 819 805 790 781 751 740 724 719 716 713 712 714 718 721 728 733 739 745 755 761 764 769 776 782 786 790 794 799 804 808 811 814 816 819 822 824 825 827 828 830 832 832 832 832
759 767 779 791 804 815 821 800 755 747 735 733 722 713 711 706 707 711 715 720 725 736 742 748 756 762 767 771 777 782 786 790 795 799 804 808 811 812 814 817 819 821 823 825 826 827 829 829 830
743 753 771 797 795 805 805 793 730 729 724 720 721 708 701 705 700 704 709 717 724 729 735 741 748 755 759 765 772 776 782 786 790 794 798 803 807 809 811 813 815 817 818 820 822 823 825 826 827
Wind_Speed
6 5 4 2 4 4 3 5 7 11 3 2 4 2 5 4 2 3 5 17 29 26 24 22 19 16 17 19 20 21 20 20 20 20 19 17 15 15 13 12 9 8 8 8 8 8 7 6 6
5 6 1 2 4 3 3 7 14 11 3 9 9 3 5 3 3 8 16 17 30 27 25 23 20 17 18 17 17 18 18 18 17 18 17 16 14 13 12 11 11 10 8 8 8 7 6 5 5
6 3 3 4 3 3 2 9 12 14 8 7 4 4 2 3 7 13 8 28 29 27 24 22 21 20 19 16 16 16 15 15 15 16 16 16 14 13 13 13 12 11 9 8 8 8 7 5 5
4 5 4 4 2 3 2 6 7 14 7 4 6 5 4 2 10 11 26 30 28 26 23 21 20 19 17 15 14 16 15 15 14 15 16 15 14 13 13 13 12 11 9 7 7 7 5 5 4
2 2 3 3 3 2 5 5 9 10 10 4 1 3 3 3 13 27 27 28 28 25 23 21 19 17 16 15 14 15 15 14 13 13 15 15 14 13 13 13 12 10 8 7 6 7 5 5 4
3 2 4 2 2 3 2 6 10 7 6 3 5 4 3 19 27 25 27 27 25 25 22 20 18 17 16 15 15 14 14 14 14 14 14 15 14 13 13 12 10 8 8 6 5 8 8 6 4
1 3 0 3 4 1 3 5 5 8 8 4 7 4 2 10 22 27 27 26 25 23 21 19 17 15 15 15 14 13 14 14 14 14 14 15 14 13 12 11 9 7 6 5 4 6 7 7 4
3 3 2 1 5 4 7 7 4 8 7 9 8 6 6 14 25 27 27 25 23 21 21 20 18 17 15 14 13 13 13 13 12 9 13 14 14 12 11 10 8 6 6 4 4 3 5 5 3
3 4 1 3 4 5 8 7 8 6 8 2 4 6 10 26 27 24 22 23 22 21 19 18 18 16 14 14 13 13 13 13 13 12 12 13 13 10 10 10 8 3 8 5 4 1 3 3 4
3 3 4 3 4 8 13 10 6 3 3 3 7 12 28 26 23 21 18 17 20 23 21 19 17 15 15 16 14 12 13 14 15 15 15 14 12 9 9 7 4 7 6 3 5 6 2 2 4
4 5 3 4 6 8 13 14 5 8 3 5 12 15 19 20 19 20 20 24 27 25 22 21 18 17 17 17 15 14 14 16 15 14 13 12 10 8 9 6 4 7 4 1 5 10 14 6 5
2 6 4 3 6 6 7 8 4 6 6 10 17 19 17 16 16 18 20 22 26 28 25 23 20 19 18 16 15 16 15 18 17 14 14 13 10 7 6 5 4 7 7 9 7 3 11 12 9
5 4 5 7 9 4 8 7 4 5 5 14 15 16 17 16 20 23 25 25 29 29 27 24 22 21 19 17 17 17 16 18 16 14 14 13 7 5 4 4 8 6 8 5 9 9 9 12 7
4 3 4 5 7 9 7 3 2 5 7 15 16 18 16 17 22 18 22 24 30 31 28 27 25 22 20 19 18 17 17 18 15 14 11 10 4 1 3 8 10 6 9 3 7 2 4 9 5
3 1 3 4 4 3 7 0 8 5 8 18 18 15 15 15 18 21 26 27 34 33 30 27 28 25 21 19 17 18 18 18 15 13 12 8 3 6 8 12 9 14 15 13 11 10 7 3 3
3 4 2 6 5 4 7 8 8 8 12 17 16 15 15 16 22 23 24 26 28 30 32 31 29 29 24 22 19 20 19 19 16 13 13 8 5 8 10 11 10 16 21 17 14 11 10 1 3
6 2 2 7 7 3 5 8 5 11 15 15 15 16 16 15 17 22 25 29 32 34 31 31 29 28 27 23 20 19 20 20 18 15 14 10 7 8 7 9 14 13 14 18 15 13 9 4 2
2 4 4 8 3 6 7 13 3 7 12 15 14 16 18 17 20 26 28 29 31 32 33 33 30 27 26 24 20 20 19 22 21 17 15 12 10 9 8 10 13 15 13 16 14 15 14 10 5
3 4 7 18 12 8 14 14 15 9 9 10 9 9 16 19 21 28 26 25 28 30 32 34 33 30 27 27 23 19 18 16 24 23 19 15 12 12 11 10 10 11 13 14 13 15 15 11 6
5 6 16 15 14 9 5 15 8 9 14 16 13 10 10 16 13 18 24 25 29 32 34 33 33 31 30 30 27 22 20 16 20 22 23 18 16 15 14 12 14 11 11 13 14 13 15 10 6
5 5 10 8 4 2 3 6 8 6 6 6 9 6 7 14 15 16 20 25 26 28 34 36 34 32 32 29 27 20 18 16 18 19 22 24 18 19 16 14 14 11 12 12 12 9 7 6 6
7 19 11 7 2 3 3 6 7 5 9 10 13 12 9 11 13 16 18 24 29 31 33 36 35 34 32 30 29 28 23 18 22 21 23 22 18 19 19 17 15 13 13 12 11 7 6 4 2
11 6 7 4 3 2 1 2 8 1 8 10 15 14 13 10 14 16 19 30 32 31 34 38 36 34 32 32 31 29 27 28 24 24 23 19 19 18 17 20 18 15 14 11 12 9 8 8 6
6 1 5 5 3 2 3 4 10 3 7 5 6 16 16 12 12 16 23 25 27 28 29 34 36 36 33 34 32 31 31 30 27 24 25 23 20 19 18 19 18 17 17 15 14 11 10 10 9
5 6 3 4 4 7 3 2 10 11 10 12 10 16 18 13 14 14 15 18 25 28 29 32 35 35 37 35 34 32 32 30 30 27 26 26 26 24 21 20 18 18 19 17 15 16 15 14 14
6 9 6 5 3 5 1 5 7 9 11 9 11 10 10 11 14 16 17 25 28 30 30 31 34 33 37 37 36 34 33 31 30 27 26 24 23 24 24 23 22 19 18 17 16 16 17 18 15
2 4 4 7 3 3 3 7 12 7 9 4 8 6 10 12 14 18 17 26 30 31 33 36 35 35 38 39 36 34 33 34 34 30 27 24 24 26 25 25 24 23 20 19 17 17 17 17 18
5 7 3 3 3 4 5 5 5 11 13 9 7 9 8 10 11 13 17 25 31 34 36 34 37 42 41 39 37 36 36 34 35 32 29 28 20 20 25 27 26 25 24 22 21 19 18 16 15
1 3 5 6 4 5 2 6 6 5 4 11 11 8 10 14 14 14 17 27 31 31 34 35 35 33 34 37 38 36 37 36 35 34 32 29 23 20 22 23 25 26 25 23 24 22 20 18 17
3 3 5 5 5 2 3 6 7 6 1 4 8 10 3 8 11 12 15 23 25 31 33 35 32 34 38 38 38 38 36 37 33 34 32 29 27 21 20 24 25 26 25 23 25 25 23 21 21
Wind_Direction
311 326 343 54 54 56 26 29 2 356 356 328 121 169 135 44 147 191 142 153 157 158 158 161 160 156 146 139 139 140 139 138 141 141 139 138 139 143 148 147 155 152 140 128 120 120 121 130 129
347 330 347 87 75 58 30 22 5 360 332 110 84 75 54 95 90 110 128 161 160 160 159 161 158 162 152 146 141 139 138 138 138 139 141 139 142 147 146 140 144 143 137 127 117 116 119 120 120
353 329 50 75 84 88 102 35 6 338 282 328 111 69 84 113 114 145 163 162 160 162 161 159 159 161 155 150 145 142 140 141 141 140 141 141 142 144 139 140 144 141 142 134 131 125 119 116 121
22 7 22 64 78 73 43 356 337 337 313 42 92 76 76 196 150 160 153 161 161 162 160 159 162 159 154 150 149 144 144 143 140 141 141 136 140 140 142 144 144 143 149 146 129 117 122 117 112
54 67 63 48 61 56 14 344 312 327 294 240 71 93 70 33 142 149 156 164 163 161 163 165 161 159 154 155 156 151 148 146 143 142 142 141 143 148 148 144 145 158 152 152 112 93 103 118 131
20 103 54 74 88 89 301 360 318 303 319 118 101 94 144 140 138 152 161 166 166 164 167 164 163 159 161 160 158 158 154 155 151 152 148 146 148 153 149 152 159 169 157 135 127 112 97 114 122
122 84 208 121 130 156 236 143 227 272 261 220 129 78 77 150 154 158 163 165 169 168 162 163 164 162 165 164 167 164 161 163 163 155 152 151 151 160 159 162 164 187 145 118 115 107 104 107 131
94 89 44 182 172 204 198 186 243 253 311 124 137 167 181 180 158 161 163 166 169 171 170 173 172 169 169 165 169 173 174 173 162 157 158 153 153 169 169 167 175 192 114 77 59 88 118 128 136
105 60 302 226 161 154 181 198 232 256 174 349 224 155 164 155 155 155 156 164 170 178 182 180 182 181 177 169 167 170 173 173 163 162 163 157 163 176 175 174 181 176 74 45 324 292 101 201 212
106 99 230 220 146 163 181 194 197 180 131 62 82 91 137 149 154 154 164 170 176 186 190 192 190 184 176 171 168 170 174 175 166 163 170 165 164 166 179 183 192 76 78 55 314 307 295 188 83
168 195 172 257 211 145 178 203 224 151 210 211 151 142 149 161 170 168 175 184 185 191 193 196 196 190 183 175 173 176 174 176 170 168 166 166 168 178 188 175 90 97 84 243 64 91 58 63 114
266 261 170 267 155 158 172 147 171 211 204 166 156 155 160 170 181 179 180 189 192 195 198 196 196 192 186 179 175 175 172 175 173 174 166 170 193 204 166 124 121 115 122 109 92 125 58 69 89
214 231 213 224 164 193 137 188 183 246 161 156 156 163 171 175 186 191 188 190 196 198 201 200 196 194 185 179 174 174 173 177 175 175 181 166 182 175 183 145 137 141 124 80 118 103 80 62 64
249 227 271 174 186 174 170 137 175 227 167 165 169 180 186 185 186 184 181 186 195 200 201 201 202 200 194 185 184 180 180 183 180 181 182 166 187 178 196 162 165 179 149 201 154 122 182 39 40
205 216 319 246 174 217 124 318 226 195 180 178 186 188 192 199 191 197 192 189 197 201 202 202 200 202 202 195 190 182 182 182 183 185 182 174 160 125 149 137 142 140 169 179 178 170 171 288 49
2 52 19 285 176 197 136 268 237 177 163 179 191 196 200 203 202 206 202 202 203 206 210 204 201 200 208 200 192 185 183 185 188 190 176 165 149 145 131 148 160 153 172 180 178 184 201 270 39
6 319 279 308 208 167 184 262 264 173 177 188 197 206 202 203 207 208 203 203 204 208 207 205 204 209 205 202 197 188 189 193 195 192 178 175 171 158 135 144 154 152 164 177 184 199 191 207 288
298 330 286 267 231 232 209 259 254 177 186 208 207 212 203 197 203 202 202 204 205 206 212 207 205 208 205 201 200 199 205 216 204 194 192 186 186 165 165 150 162 163 175 175 184 188 194 205 252
239 257 258 285 283 203 222 233 246 194 203 220 213 209 198 201 206 197 201 195 194 201 204 205 202 205 205 201 197 193 198 202 204 210 196 198 199 180 180 167 177 178 169 184 180 191 209 204 219
247 276 278 274 272 177 213 241 265 191 221 213 213 212 208 203 199 198 191 190 189 196 201 202 203 202 202 200 203 207 207 206 195 198 203 210 213 200 192 189 174 190 179 191 188 188 194 216 211
257 212 267 245 327 193 106 309 277 243 212 192 235 217 185 194 193 192 193 189 189 193 203 207 206 206 205 206 207 204 205 208 200 211 213 206 213 206 205 194 187 185 189 188 195 204 204 200 199
271 277 261 263 76 251 103 270 269 268 247 221 221 227 207 187 204 194 189 185 192 196 204 209 209 210 210 208 209 206 201 194 205 205 200 206 207 202 211 204 196 192 194 196 195 214 240 259 265
235 269 246 235 171 41 339 35 269 25 276 232 222 221 218 192 191 200 192 190 192 190 199 206 209 210 211 209 211 209 207 210 210 211 210 211 210 207 210 211 207 209 205 196 190 206 221 224 259
265 175 38 46 75 354 227 129 291 247 220 272 207 208 217 198 196 201 198 189 189 190 192 198 205 211 211 209 212 214 212 210 210 213 215 214 216 217 219 222 223 224 223 212 209 215 219 219 234
94 67 331 342 4 233 85 101 237 280 250 236 240 202 212 197 197 190 177 183 183 187 187 192 200 205 212 211 212 216 217 212 213 213 216 219 226 232 228 225 230 233 231 230 231 234 233 235 240
184 152 157 215 212 264 237 244 268 255 284 235 239 189 200 194 191 189 183 181 186 184 187 189 197 201 209 212 215 217 217 215 215 218 220 221 230 235 232 229 232 236 239 238 237 239 239 236 241
191 208 190 112 25 41 257 290 304 334 339 322 234 165 196 188 192 189 185 182 187 185 188 192 195 200 206 209 214 217 217 217 216 220 222 223 231 240 238 237 235 232 233 235 238 238 235 237 241
171 162 78 11 165 242 279 283 239 343 332 325 298 239 206 199 195 183 188 185 189 190 190 193 199 199 203 206 210 213 213 215 220 224 224 226 231 237 239 238 240 236 234 233 235 236 235 244 240
21 231 54 122 141 177 235 265 222 234 306 330 319 273 228 197 196 181 187 193 192 186 185 189 196 197 198 203 207 210 214 217 222 225 226 228 238 241 237 237 231 233 235 234 231 238 240 241 240
202 177 141 136 244 218 158 266 218 213 213 15 342 335 247 242 194 181 181 182 184 186 186 190 190 194 201 202 205 211 216 218 222 224 227 227 232 235 237 232 230 232 237 240 237 234 237 243 246